[[{"header":{"parameterUnit":"m.s-1","parameterCategory":1,"la1":30.2991,"la2":30.254,"lo1":-89.0895,"lo2":-89.0444,"dy":0.0017,"dx":0.0017,"nx":28,"ny":28,"refTime":"2025-11-06T09:00:00:Z","depth":0,"parameterNumber":2,"parameterNumberName":"U-component_of_WINDS"},"data":[0,0,0,0,0,0,0,0,0,0,0,0,0,0,0,0,0,0,0,0,0,0,0,0,0,0,0,0,0,0,0,0,0,0,0,0,0,0,0,0,0,0,0,0,0,0,0,0,0,0,0,0,0,0,0,0,0,0,-0.2935,-0.2935,0,-0.2975,-0.2976,-0.2976,-0.2969,-0.2968,-0.2967,-0.2967,-0.3009,-0.3011,-0.3013,0,0,0,0,0,0,0,0,0,0,0,0,0,-0.2853,-0.2855,-0.2935,-0.2935,-0.2936,-0.2975,-0.2976,-0.2976,-0.2969,-0.2968,-0.2967,-0.2966,-0.3009,-0.3011,-0.3013,0,0,0,0,0,0,0,0,0,0,0,0,0,-0.2891,-0.2855,-0.2935,-0.2937,-0.2937,-0.2975,-0.2976,-0.2976,-0.2969,-0.2968,-0.2967,-0.2966,-0.3008,-0.301,-0.3013,-0.3051,0,0,-0.3021,-0.3023,0,0,0,0,0,0,0,0,-0.2888,-0.2894,-0.2936,-0.2937,-0.2937,-0.2966,-0.2962,-0.3001,-0.2969,-0.2957,-0.2967,-0.2965,-0.2996,-0.2999,-0.3009,-0.3053,-0.3055,-0.3022,-0.3023,-0.3024,-0.3025,0,0,0,0,0,0,0,-0.2886,-0.2892,-0.2951,-0.2937,-0.2938,-0.2936,-0.2941,-0.297,-0.2982,-0.2958,-0.2958,-0.2963,-0.2996,-0.3007,-0.301,-0.3056,-0.3022,-0.3024,-0.3026,-0.3027,-0.3134,-0.3135,0,0,0,0,0,0,-0.2882,-0.289,-0.2949,-0.2952,-0.291,-0.2939,-0.2943,-0.2958,-0.2982,-0.2984,-0.2963,-0.2962,-0.3003,-0.3007,-0.3012,-0.3059,-0.3024,-0.3027,-0.3028,-0.3133,-0.3135,-0.3136,0,0,0,0,0,0,-0.2881,-0.2888,-0.2948,-0.2921,-0.2928,-0.2941,-0.2958,-0.2959,-0.297,-0.2986,-0.2988,-0.2972,-0.3002,-0.3008,-0.3042,-0.306,-0.3028,-0.3031,-0.3132,-0.3134,-0.3135,-0.3152,0,0,0,0,0,0,-0.2878,-0.2887,-0.2901,-0.2921,-0.293,-0.2977,-0.2959,-0.2961,-0.2974,-0.2973,-0.2994,-0.2997,-0.3002,-0.3038,-0.3044,-0.3063,-0.3033,-0.313,-0.3132,-0.3135,-0.315,-0.3154,-0.3158,0,0,0,0,0,-0.2875,-0.2904,-0.2902,-0.2909,-0.2948,-0.2978,-0.2983,-0.2987,-0.2976,-0.2991,-0.3001,-0.2996,-0.3057,-0.3041,-0.3049,-0.3068,-0.3129,-0.3132,-0.3134,-0.3148,-0.3154,-0.3158,0,0,0,0,0,0,-0.2887,-0.2907,-0.2905,-0.2941,-0.2957,-0.2976,-0.2995,-0.2992,-0.3013,-0.3011,-0.3016,-0.3021,-0.3055,-0.3065,-0.3047,-0.3107,-0.3091,-0.3096,-0.3099,-0.3105,-0.3108,-0.3105,-0.3035,0,0,0,0,0,-0.2893,-0.2915,-0.2932,-0.2963,-0.2971,-0.2982,-0.2995,-0.2997,-0.3015,-0.3022,-0.3034,-0.3052,-0.3075,-0.3091,-0.3113,-0.3152,-0.3157,-0.3169,-0.3173,-0.3176,-0.318,-0.3202,-0.3208,-0.3145,-0.3145,-0.3145,0,0,-0.2907,-0.2921,-0.2935,-0.2965,-0.2978,-0.3002,-0.2988,-0.3013,-0.3031,-0.3026,-0.3058,-0.3069,-0.3089,-0.3126,-0.3142,-0.3135,-0.3199,-0.318,-0.3182,-0.3184,-0.3206,-0.3212,-0.3217,-0.3147,-0.3147,-0.3146,0,0,-0.2945,-0.2957,-0.2984,-0.2998,-0.3018,-0.3025,-0.3032,-0.3051,-0.3058,-0.3091,-0.3088,-0.3109,-0.3149,-0.3164,-0.3176,-0.3221,-0.3218,-0.3228,-0.3249,-0.3271,-0.3276,-0.328,-0.3297,-0.3302,-0.3232,-0.3232,-0.3232,0,-0.296,-0.2994,-0.2998,-0.3024,-0.3038,-0.3035,-0.3063,-0.3076,-0.3103,-0.3113,-0.3104,-0.3154,-0.3168,-0.3208,-0.3219,-0.3229,-0.3238,-0.3225,-0.3275,-0.3279,-0.3283,-0.3299,-0.3305,-0.3233,-0.3233,-0.3233,-0.3233,0,-0.3012,-0.3036,-0.3056,-0.3081,-0.3098,-0.3124,-0.3133,-0.3149,-0.315,-0.3159,-0.3193,-0.3209,-0.3235,-0.3244,-0.3246,-0.3286,-0.3281,-0.3273,-0.3257,-0.329,-0.3305,-0.3311,-0.3235,-0.3234,-0.3234,-0.3233,0,0,-0.3057,-0.3085,-0.3092,-0.3104,-0.3127,-0.3146,-0.3173,-0.3198,-0.3212,-0.3231,-0.3255,-0.3289,-0.3282,-0.3297,-0.33,-0.3319,-0.3354,-0.3309,-0.331,-0.3317,-0.34,-0.3406,-0.3413,-0.3352,-0.3353,-0.3354,-0.3399,0,-0.3097,-0.3144,-0.3149,-0.3192,-0.3215,-0.3213,-0.3236,-0.3253,-0.3262,-0.3283,-0.3293,-0.3318,-0.3307,-0.3316,-0.3335,-0.3346,-0.3371,-0.3343,-0.3375,-0.3376,-0.337,-0.342,-0.3426,-0.3467,-0.3405,-0.3405,-0.3406,0,-0.315,-0.317,-0.3215,-0.3235,-0.3245,-0.3266,-0.329,-0.331,-0.333,-0.3335,-0.3352,-0.3352,-0.3381,-0.3365,-0.3405,-0.3386,-0.3399,-0.3407,-0.3409,-0.3412,-0.3393,-0.3425,-0.348,-0.3486,-0.3415,-0.3415,-0.3414,0,-0.3179,-0.3217,-0.3249,-0.326,-0.3284,-0.3299,-0.331,-0.3328,-0.3343,-0.3365,-0.3375,-0.3399,-0.3412,-0.3432,-0.344,-0.3426,-0.348,-0.3464,-0.3486,-0.3485,-0.3497,-0.3496,-0.3555,-0.3505,-0.3505,-0.3505,-0.3505,0,-0.3223,-0.3251,-0.3263,-0.3282,-0.3314,-0.332,-0.3351,-0.3361,-0.3378,-0.34,-0.34,-0.3421,-0.343,-0.3453,-0.3459,-0.3492,-0.3498,-0.3504,-0.3505,-0.3504,-0.3503,-0.3512,-0.351,-0.3507,-0.3506,-0.3506,-0.3506,0,-0.3261,-0.327,-0.3304,-0.3325,-0.3331,-0.3353,-0.3371,-0.339,-0.3399,-0.3427,-0.3434,-0.3448,-0.3475,-0.3485,-0.3517,-0.3522,-0.356,-0.3559,-0.3554,-0.3554,-0.3575,-0.3573,-0.3643,-0.3652,-0.3596,-0.3597,-0.3597,0,-0.3288,-0.3309,-0.3332,-0.3347,-0.3358,-0.3382,-0.3397,-0.3404,-0.3421,-0.3445,-0.3462,-0.3489,-0.3511,-0.3554,-0.3567,-0.3593,-0.3592,-0.3615,-0.3596,-0.3595,-0.3593,-0.3592,-0.3594,-0.3618,-0.3619,-0.362,-0.362,0,-0.3336,-0.334,-0.3362,-0.3386,-0.3404,-0.3424,-0.3442,-0.3455,-0.3465,-0.3483,-0.3511,-0.3528,-0.3561,-0.3588,-0.3614,-0.3626,-0.3625,-0.3626,-0.3632,-0.3631,-0.3627,-0.363,-0.3563,-0.3624,-0.3624,-0.3623,-0.3623,-0.3623,-0.337,-0.3389,-0.3408,-0.3433,-0.3448,-0.3466,-0.3485,-0.3497,-0.3519,-0.3547,-0.355,-0.358,-0.36,-0.3635,-0.3648,-0.3672,-0.3666,-0.3676,-0.3678,-0.368,-0.3682,-0.3623,-0.3677,-0.3677,-0.3677,-0.3677,-0.3677,0,-0.3419,-0.3431,-0.3454,-0.348,-0.35,-0.3497,-0.3518,-0.3535,-0.3561,-0.3579,-0.3601,-0.3633,-0.3659,-0.3675,-0.3702,-0.3718,-0.3718,-0.3725,-0.3724,-0.3727,-0.3686,-0.3677,-0.3724,-0.3724,-0.3724,-0.3724,-0.3724,-0.3724,-0.3447,-0.3479,-0.3485,-0.3525,-0.3537,-0.3566,-0.3578,-0.3595,-0.361,-0.3646,-0.3667,-0.3677,-0.3695,-0.3724,-0.3748,-0.3752,-0.3762,-0.3769,-0.3773,-0.3734,-0.3729,-0.3725,-0.3717,-0.3771,-0.3771,-0.3812,-0.3812,-0.3812]},{"header":{"parameterUnit":"m.s-1","parameterCategory":1,"la1":30.2991,"la2":30.254,"lo1":-89.0895,"lo2":-89.0444,"dy":0.0017,"dx":0.0017,"nx":28,"ny":28,"refTime":"2025-11-06T09:00:00:Z","depth":0,"parameterNumber":3,"parameterNumberName":"V-component_of_WINDS"},"data":[0,0,0,0,0,0,0,0,0,0,0,0,0,0,0,0,0,0,0,0,0,0,0,0,0,0,0,0,0,0,0,0,0,0,0,0,0,0,0,0,0,0,0,0,0,0,0,0,0,0,0,0,0,0,0,0,0,0,-0.1597,-0.1597,0,-0.1593,-0.1593,-0.1593,-0.1567,-0.1567,-0.1566,-0.1565,-0.1565,-0.1566,-0.1566,0,0,0,0,0,0,0,0,0,0,0,0,0,-0.1584,-0.1585,-0.1597,-0.1597,-0.1596,-0.1593,-0.1593,-0.1593,-0.1567,-0.1567,-0.1566,-0.1565,-0.1565,-0.1566,-0.1566,0,0,0,0,0,0,0,0,0,0,0,0,0,-0.1586,-0.1585,-0.1597,-0.1583,-0.1582,-0.1593,-0.1593,-0.1593,-0.1568,-0.1567,-0.1566,-0.1565,-0.1565,-0.1566,-0.1566,-0.1591,0,0,-0.1569,-0.157,0,0,0,0,0,0,0,0,-0.1586,-0.1587,-0.1585,-0.1584,-0.1583,-0.1579,-0.1588,-0.1592,-0.1568,-0.1573,-0.1565,-0.1564,-0.1571,-0.1571,-0.1573,-0.1591,-0.1591,-0.1569,-0.157,-0.157,-0.157,0,0,0,0,0,0,0,-0.1586,-0.1587,-0.1595,-0.1585,-0.1584,-0.1578,-0.1578,-0.1589,-0.1578,-0.1573,-0.1571,-0.1571,-0.157,-0.1572,-0.1573,-0.1591,-0.1569,-0.157,-0.1571,-0.1571,-0.1628,-0.1629,0,0,0,0,0,0,-0.1587,-0.1587,-0.1595,-0.1595,-0.1582,-0.1579,-0.1579,-0.1582,-0.1577,-0.1576,-0.1571,-0.1569,-0.1571,-0.1572,-0.1572,-0.16,-0.157,-0.1571,-0.1571,-0.1627,-0.1629,-0.163,0,0,0,0,0,0,-0.1587,-0.1588,-0.1595,-0.159,-0.1591,-0.1581,-0.1584,-0.1582,-0.1584,-0.1576,-0.1574,-0.1575,-0.157,-0.1571,-0.1586,-0.16,-0.1571,-0.1572,-0.1626,-0.1628,-0.1629,-0.1657,0,0,0,0,0,0,-0.1587,-0.1588,-0.1597,-0.1591,-0.1591,-0.1608,-0.1585,-0.1583,-0.1585,-0.1582,-0.1579,-0.1578,-0.157,-0.1585,-0.1587,-0.1601,-0.1573,-0.1625,-0.1627,-0.1629,-0.1655,-0.1659,-0.1663,0,0,0,0,0,-0.1587,-0.1606,-0.1598,-0.1599,-0.1602,-0.1609,-0.161,-0.1599,-0.1586,-0.1595,-0.159,-0.1578,-0.1598,-0.1587,-0.1589,-0.1603,-0.1624,-0.1626,-0.1629,-0.1653,-0.1658,-0.1663,0,0,0,0,0,0,-0.1615,-0.1605,-0.1596,-0.1613,-0.1612,-0.1605,-0.1616,-0.1605,-0.1608,-0.1606,-0.1593,-0.1592,-0.1609,-0.1608,-0.1595,-0.1626,-0.1609,-0.1612,-0.1627,-0.1632,-0.1636,-0.1636,-0.1574,0,0,0,0,0,-0.1623,-0.163,-0.162,-0.1637,-0.1637,-0.1626,-0.1629,-0.1621,-0.162,-0.162,-0.1616,-0.1616,-0.1622,-0.1627,-0.1632,-0.1654,-0.1653,-0.1665,-0.1669,-0.1672,-0.1675,-0.1686,-0.1692,-0.1637,-0.1637,-0.1637,0,0,-0.1641,-0.1636,-0.1641,-0.1642,-0.1641,-0.1648,-0.1626,-0.1635,-0.1641,-0.1621,-0.1635,-0.1632,-0.1632,-0.165,-0.1658,-0.1649,-0.169,-0.1675,-0.1678,-0.1679,-0.1689,-0.1694,-0.1699,-0.1639,-0.1638,-0.1638,0,0,-0.1676,-0.1673,-0.1686,-0.1684,-0.1681,-0.1674,-0.1677,-0.1672,-0.1669,-0.1682,-0.1667,-0.1674,-0.1685,-0.1685,-0.1687,-0.1721,-0.1711,-0.1724,-0.1746,-0.1757,-0.1761,-0.1765,-0.1777,-0.1782,-0.1726,-0.1726,-0.1726,0,-0.1698,-0.1708,-0.1694,-0.1704,-0.1705,-0.1686,-0.17,-0.1699,-0.1699,-0.1701,-0.1691,-0.1704,-0.1702,-0.172,-0.1728,-0.173,-0.1734,-0.1724,-0.1761,-0.1765,-0.1768,-0.178,-0.1785,-0.1728,-0.1728,-0.1728,-0.1728,0,-0.1736,-0.1743,-0.1754,-0.1752,-0.1755,-0.1767,-0.1755,-0.176,-0.1751,-0.1745,-0.1758,-0.1756,-0.176,-0.1764,-0.1756,-0.178,-0.1775,-0.1763,-0.1746,-0.1775,-0.1786,-0.179,-0.173,-0.173,-0.1729,-0.1729,0,0,-0.179,-0.178,-0.1784,-0.1783,-0.1778,-0.1784,-0.1795,-0.1798,-0.1802,-0.1802,-0.1811,-0.1821,-0.1809,-0.1811,-0.1803,-0.1812,-0.184,-0.1799,-0.1799,-0.1807,-0.1867,-0.1876,-0.1882,-0.1832,-0.1833,-0.1834,-0.1867,0,-0.1823,-0.184,-0.1828,-0.1848,-0.1854,-0.1836,-0.1845,-0.1844,-0.1839,-0.1844,-0.1839,-0.1845,-0.183,-0.1831,-0.184,-0.1835,-0.1852,-0.1832,-0.1842,-0.1842,-0.1843,-0.1887,-0.1897,-0.1929,-0.1872,-0.1872,-0.1873,0,-0.1865,-0.1866,-0.1886,-0.1879,-0.1881,-0.189,-0.1892,-0.1897,-0.1895,-0.189,-0.1892,-0.1881,-0.1892,-0.1874,-0.1889,-0.1876,-0.1879,-0.1877,-0.1878,-0.1879,-0.186,-0.189,-0.1939,-0.1944,-0.1879,-0.1879,-0.1878,0,-0.1903,-0.1909,-0.1921,-0.1921,-0.1914,-0.192,-0.1918,-0.1914,-0.1917,-0.1919,-0.192,-0.1924,-0.1926,-0.1929,-0.1919,-0.1907,-0.1936,-0.1917,-0.1933,-0.1933,-0.194,-0.194,-0.1991,-0.1942,-0.1942,-0.1942,-0.1942,0,-0.1942,-0.1955,-0.1938,-0.1946,-0.196,-0.1946,-0.196,-0.1956,-0.1953,-0.196,-0.1945,-0.1953,-0.1939,-0.1945,-0.1938,-0.1952,-0.1953,-0.195,-0.1948,-0.1952,-0.1952,-0.1954,-0.1952,-0.1943,-0.1943,-0.1942,-0.1942,0,-0.1987,-0.1976,-0.1988,-0.1979,-0.1978,-0.1988,-0.1981,-0.1989,-0.1982,-0.1991,-0.1993,-0.1983,-0.1989,-0.1979,-0.1985,-0.198,-0.1999,-0.1994,-0.2,-0.1998,-0.2014,-0.2013,-0.2068,-0.2075,-0.2022,-0.2022,-0.2023,0,-0.2013,-0.2022,-0.2014,-0.2017,-0.2015,-0.202,-0.2022,-0.2009,-0.2012,-0.201,-0.2018,-0.2022,-0.2025,-0.2036,-0.203,-0.2034,-0.2029,-0.2048,-0.203,-0.2033,-0.203,-0.2029,-0.203,-0.2052,-0.2053,-0.2053,-0.2054,0,-0.206,-0.2054,-0.2057,-0.2058,-0.206,-0.2061,-0.206,-0.2064,-0.205,-0.2054,-0.2059,-0.2062,-0.2067,-0.2072,-0.2074,-0.2073,-0.2061,-0.2059,-0.2063,-0.2067,-0.207,-0.2069,-0.201,-0.2059,-0.2058,-0.2058,-0.2057,-0.2057,-0.2096,-0.2103,-0.2098,-0.2102,-0.21,-0.21,-0.2106,-0.21,-0.2104,-0.2106,-0.2098,-0.2106,-0.2103,-0.2105,-0.2104,-0.2111,-0.2102,-0.2108,-0.211,-0.2111,-0.2114,-0.2069,-0.2111,-0.2111,-0.2111,-0.2111,-0.2111,0,-0.2142,-0.2138,-0.2142,-0.2141,-0.2144,-0.2132,-0.213,-0.2134,-0.214,-0.2139,-0.2142,-0.2148,-0.2153,-0.2146,-0.215,-0.2156,-0.2151,-0.2158,-0.2158,-0.2157,-0.2121,-0.2117,-0.2162,-0.2162,-0.2162,-0.2162,-0.2162,-0.2162,-0.2167,-0.2179,-0.2172,-0.2183,-0.2179,-0.2185,-0.2185,-0.2185,-0.2183,-0.2191,-0.2194,-0.219,-0.2186,-0.2189,-0.2193,-0.2191,-0.2194,-0.2202,-0.2199,-0.2165,-0.216,-0.2155,-0.2152,-0.2203,-0.2203,-0.2235,-0.2235,-0.2235]}]]